C/2018 A3 ( ATLAS )

Japanese version
Home page
Updated on February 27, 2020

---------------------------------------------------------------------

* Profile

Discovery Date January 10, 2018
Magnitude 18.7 mag
Discoverer Asteroid Terrestrial-impact Last Alert System (ATLAS) search program

* Pictures

* Orbital Elements

Epoch 2018 Dec. 28.0 TT = JDT 2458480.5
T 2019 Jan. 12.86339 TT                                 Williams
q   3.2767169            (2000.0)            P               Q
z  +0.0020064      Peri.   86.42656     -0.24776712     +0.95551874
 +/-0.0000003      Node   194.27956     +0.40380092     +0.25195801
e   0.9934255      Incl.  139.56198     +0.88065673     +0.15330065
From 1398 observations 2018 Jan. 10-2020 Jan. 1, mean residual 0".5.

* Finding Charts

* Magnitudes Graph

        m1 = 8.0 + 5 log d + 10.0 log r

---------------------------------------------------------------------

The orbital elements are published on M.P.E.C. 2020-A105.
The charts are made with StellaNavigator Ver.10 (AstroArts).
The magnitudes graphs are made with Comet for Windows.

---------------------------------------------------------------------

Copyright(C) Seiichi Yoshida (comet@aerith.net). All rights reserved.